Regional Weather Roundup
Issued by NWS

Home | Current Version | Previous Version | Graphics & Text | Print | Product List | Glossary On
Versions: 1 2 3 4 5 6 7 8 9 10 11 12 13 14 15 16 17 18 19 20 21 22 23 24 25 26 27 28 29 30 31 32 33 34 35 36 37 38 39 40 41 42 43 44 45 46 47 48 49 50
000
ASUS45 KTFX 271604
RWRMT
MONTANA REGIONAL WEATHER ROUNDUP
NATIONAL WEATHER SERVICE GREAT FALLS MT
1000 AM MDT THU AUG 27 2015

NOTE: "FAIR" INDICATES FEW OR NO CLOUDS BELOW 12000 FEET WITH NO
SIGNIFICANT WEATHER AND/OR OBSTRUCTIONS TO VISIBILITY.

MTZ001>007-043-271700-
WEST OF THE DIVIDE

CITY           SKY/WX    TMP DP  RH WIND       PRES   REMARKS
KALISPELL      CLOUDY    64  44  48 NE5       30.07R SMOKE
MISSOULA       CLOUDY    61  43  51 SE5       30.12R HAZE
BUTTE          CLOUDY    65  42  43 SE6       30.24S
MULLAN PASS    CLOUDY    63  34  33 VRB5      30.25S HAZE
DEER LODGE       N/A     63  43  48 CALM      30.21R
EUREKA           N/A     57  43  58 CALM        N/A
HAMILTON         N/A     64  46  52 W2        30.12S
LIBBY            N/A     57  45  62 CALM      30.08S
$$

MTZ008-052>055-271700-
SOUTHWEST MONTANA

CITY           SKY/WX    TMP DP  RH WIND       PRES   REMARKS
BOZEMAN        CLOUDY    64  53  67 NW3       30.18R
DILLON         CLOUDY    64  46  52 S6        30.23R
W YELLOWSTONE  MOSUNNY   54  45  71 NE3       30.36S
$$

MTZ009-010-012-014-046-048-049-054-271700-
EAST SLOPES AND CENTRAL MONTANA

CITY           SKY/WX    TMP DP  RH WIND       PRES   REMARKS
CUT BANK       CLOUDY    65  47  52 CALM      30.04S HAZE
GREAT FALLS    CLOUDY    67  42  40 W5        30.04R
MALMSTROM AFB  CLOUDY    66  43  42 W5        30.04R
HELENA         CLOUDY    67  43  41 SE6       30.12R
$$

MTZ011-013-016-021-045-047-050-051-271700-
NORTH CENTRAL MONTANA

CITY           SKY/WX    TMP DP  RH WIND       PRES   REMARKS
HAVRE          MOSUNNY   67  50  54 W7        29.98S
LEWISTOWN      CLOUDY    68  50  52 E3        30.09R
N BAR RANCH      N/A     72  50  46 W5        30.11S
CHINOOK          N/A     66  52  59 CALM      29.98R
FORT BENTON      N/A     64  45  48 S5        30.02S
$$

MTZ017>020-022>027-061-062-271700-
NORTHEAST MONTANA

CITY           SKY/WX    TMP DP  RH WIND       PRES   REMARKS
GLASGOW        MOSUNNY   71  56  58 CALM      29.98R
JORDAN           N/A     71  53  52 CALM      29.98F
SIDNEY         PTSUNNY   70  63  78 CALM      29.97R
WOLF POINT     MOSUNNY   70  57  63 SE5       29.97F
PLENTYWOOD       N/A     72  57  60 CALM      29.99S
POPLAR           N/A     70  59  68 NE6       29.98S
$$

MTZ028>42-056>058-271700-
SOUTHCENTRAL AND SOUTHEAST MONTANA

CITY           SKY/WX    TMP DP  RH WIND       PRES   REMARKS
BAKER          PTSUNNY   72  63  73 S6        30.01S
BILLINGS       CLOUDY    73  52  47 SW18      30.07R
LIVINGSTON     MOSUNNY   78  44  29 W14       30.15R
MILES CITY     PTSUNNY   73  62  68 CALM      30.00S
FORSYTH          N/A     73  52  46 CALM      30.00S
$$

REGIONAL REPORTS...DAKOTAS

CITY           SKY/WX    TMP DP  RH WIND       PRES   REMARKS
WILLISTON      MOSUNNY   70  61  73 NE7       29.98S
MINOT          PTSUNNY   67  60  78 CALM      29.97R
DICKINSON      CLOUDY    73  61  65 S8        29.98S
BISMARCK       CLOUDY    70  63  78 CALM      29.99R
GRAND FORKS    PTSUNNY   66  57  72 S5        29.97S
FARGO          MOSUNNY   71  60  68 SE7       29.97R
BUFFALO SD       N/A     71  61  70 SW6       29.95R
RAPID CITY     LGT RAIN  67  63  87 NW7       30.05S
$$

REGIONAL REPORTS...WYOMING/IDAHO/WASHINGTON

CITY           SKY/WX    TMP DP  RH WIND       PRES   REMARKS
GILLETTE       CLOUDY    66  58  75 S10       30.11F
SHERIDAN       PTSUNNY   73  53  49 S5        30.08F
BUFFALO WY     CLOUDY    72  51  47 S8        30.17F
CODY           SUNNY     70  52  52 S8        30.20F
YELLOWSTONE LA   N/A     52  46  80 VRB3      30.44R
IDAHO FALLS    PTSUNNY   64  53  67 CALM      30.27S
SALMON         PTSUNNY   66  48  52 N3        30.19S
BOISE          PTSUNNY   81  46  29 S3        30.14R
SPOKANE        MOSUNNY   67  38  34 SE10      30.06R HAZE
$$

REGIONAL REPORTS...ALBERTA

CITY           SKY/WX    TMP DP  RH WIND       PRES   REMARKS
$$

REGIONAL REPORTS...SASKATCHEWAN

CITY           SKY/WX    TMP DP  RH WIND       PRES   REMARKS
$$



USA.gov is the U.S. government's official web portal to all federal, state and local government web resources and services.